| time (UTC) | temp C | wind direction | speed KPH | gust KPH | rain 1hr cm | rain 24hr cm | rain mn cm | humidity % | barometer mb |
| 20260507131001 | 8 | 220 | 1.6 | 11.3 | 0.00 | 1.22 | 0.00 | 1 | 1008.8 |
| 20260507130457 | 7 | 324 | 1.6 | 4.8 | 0.00 | 1.22 | 0.00 | 1 | 1008.9 |
| 20260507130001 | 7 | 227 | 1.6 | 4.8 | 0.00 | 1.22 | 0.00 | 1 | 1008.9 |
| 20260507125458 | 7 | 145 | 1.6 | 6.4 | 0.00 | 1.22 | 0.00 | 1 | 1008.9 |
| 20260507124959 | 7 | 252 | 1.6 | 6.4 | 0.00 | 1.22 | 0.00 | 1 | 1008.9 |
| 20260507124459 | 7 | 40 | 1.6 | 4.8 | 0.00 | 1.22 | 0.00 | 1 | 1008.9 |
| 20260507123959 | 7 | 314 | 1.6 | 8.0 | 0.00 | 1.22 | 0.00 | 1 | 1008.8 |
| 20260507123002 | 6 | 63 | 1.6 | 4.8 | 0.00 | 1.22 | 0.00 | 1 | 1008.6 |
| 20260507122505 | 6 | 63 | 1.6 | 4.8 | 0.00 | 1.22 | 0.00 | 1 | 1008.6 |
| 20260507121501 | 6 | 300 | 1.6 | 4.8 | 0.00 | 1.22 | 0.00 | 1 | 1008.6 |
| 20260507121001 | 6 | 46 | 1.6 | 8.0 | 0.00 | 1.22 | 0.00 | 1 | 1008.6 |
| 20260507120001 | 5 | 1 | 0.0 | 3.2 | 0.00 | 1.22 | 0.00 | 1 | 1008.6 |
| 20260507115459 | 5 | 46 | 0.0 | 1.6 | 0.00 | 1.22 | 0.00 | 1 | 1008.8 |
| 20260507115000 | 5 | 1 | 0.0 | 1.6 | 0.00 | 1.22 | 0.00 | 1 | 1008.9 |
| 20260507114501 | 5 | 28 | 0.0 | 1.6 | 0.00 | 1.22 | 0.00 | 1 | 1008.8 |
| 20260507113958 | 5 | 314 | 0.0 | 3.2 | 0.00 | 1.22 | 0.00 | 1 | 1008.9 |
| 20260507113458 | 5 | 89 | 0.0 | 3.2 | 0.00 | 1.22 | 0.00 | 1 | 1008.8 |
| 20260507111958 | 5 | 46 | 0.0 | 1.6 | 0.00 | 1.22 | 0.00 | 1 | 1008.8 |
| 20260507111459 | 5 | 89 | 0.0 | 1.6 | 0.00 | 1.22 | 0.00 | 1 | 1008.8 |
| 20260507110458 | 5 | 20 | 0.0 | 3.2 | 0.00 | 1.22 | 0.00 | 1 | 1008.9 |
| 20260507105958 | 5 | 46 | 0.0 | 1.6 | 0.00 | 1.22 | 0.00 | 1 | 1008.9 |
| 20260507105458 | 5 | 178 | 0.0 | 1.6 | 0.00 | 1.22 | 0.00 | 1 | 1008.9 |
| 20260507104958 | 5 | 223 | 0.0 | 3.2 | 0.00 | 1.22 | 0.00 | 1 | 1008.9 |
| 20260507104457 | 5 | 269 | 0.0 | 3.2 | 0.00 | 1.22 | 0.00 | 1 | 1008.8 |
| 20260507103958 | 5 | 223 | 0.0 | 1.6 | 0.00 | 1.22 | 0.00 | 1 | 1008.7 |
| 20260507103457 | 5 | 269 | 0.0 | 1.6 | 0.00 | 1.22 | 0.00 | 1 | 1008.7 |
| 20260507102957 | 5 | 223 | 0.0 | 1.6 | 0.00 | 1.22 | 0.00 | 1 | 1008.6 |
| 20260507102458 | 5 | 178 | 0.0 | 1.6 | 0.00 | 1.22 | 0.00 | 1 | 1008.6 |
| 20260507101957 | 5 | 269 | 0.0 | 1.6 | 0.00 | 1.22 | 0.00 | 1 | 1008.6 |
| 20260507100958 | 5 | 269 | 0.0 | 3.2 | 0.00 | 1.22 | 0.00 | 1 | 1008.7 |
| 20260507100000 | 5 | 295 | 0.0 | 1.6 | 0.00 | 1.22 | 0.00 | 1 | 1008.6 |
| 20260507095459 | 5 | 269 | 0.0 | 1.6 | 0.00 | 1.22 | 0.00 | 1 | 1008.8 |
| 20260507095000 | 6 | 223 | 0.0 | 1.6 | 0.00 | 1.22 | 0.00 | 1 | 1008.7 |
| 20260507093959 | 6 | 241 | 0.0 | 1.6 | 0.00 | 1.22 | 0.00 | 1 | 1008.8 |
| 20260507093458 | 6 | 46 | 0.0 | 1.6 | 0.00 | 1.22 | 0.00 | 1 | 1008.8 |
| 20260507092959 | 6 | 314 | 1.6 | 1.6 | 0.00 | 1.22 | 0.00 | 1 | 1008.7 |
| 20260507092459 | 6 | 269 | 1.6 | 1.6 | 0.00 | 1.22 | 0.00 | 1 | 1009.0 |
| 20260507091958 | 6 | 269 | 0.0 | 1.6 | 0.00 | 1.22 | 0.00 | 1 | 1008.9 |
| 20260507091459 | 6 | 46 | 0.0 | 1.6 | 0.00 | 1.22 | 0.00 | 1 | 1009.1 |
| 20260507090959 | 6 | 46 | 0.0 | 1.6 | 0.00 | 1.22 | 0.00 | 1 | 1009.0 |
| 20260507090500 | 6 | 28 | 0.0 | 3.2 | 0.00 | 1.22 | 0.00 | 1 | 1009.0 |
| 20260507085959 | 6 | 223 | 0.0 | 3.2 | 0.00 | 1.22 | 0.00 | 1 | 1008.9 |
| 20260507085457 | 6 | 269 | 0.0 | 1.6 | 0.00 | 1.22 | 0.00 | 1 | 1008.6 |
| 20260507084958 | 6 | 206 | 0.0 | 3.2 | 0.00 | 1.22 | 0.00 | 1 | 1008.6 |
| 20260507084458 | 6 | 46 | 0.0 | 3.2 | 0.00 | 1.22 | 0.00 | 1 | 1008.6 |
| 20260507084003 | 6 | 314 | 0.0 | 1.6 | 0.00 | 1.22 | 0.00 | 1 | 1008.6 |
| 20260507083502 | 6 | 1 | 0.0 | 1.6 | 0.00 | 1.22 | 0.00 | 1 | 1008.9 |
| 20260507082957 | 6 | 269 | 0.0 | 1.6 | 0.00 | 1.22 | 0.00 | 1 | 1008.8 |
| 20260507082458 | 7 | 46 | 0.0 | 1.6 | 0.00 | 1.22 | 0.00 | 1 | 1008.7 |
| 20260507081958 | 7 | 314 | 0.0 | 1.6 | 0.00 | 1.22 | 0.00 | 1 | 1008.5 |
| 20260507081458 | 7 | 314 | 0.0 | 1.6 | 0.00 | 1.22 | 0.00 | 1 | 1008.5 |
| 20260507080958 | 7 | 223 | 0.0 | 1.6 | 0.00 | 1.22 | 0.00 | 1 | 1008.3 |
| 20260507080458 | 7 | 1 | 0.0 | 3.2 | 0.00 | 1.22 | 0.00 | 1 | 1008.5 |
| 20260507075958 | 7 | 1 | 0.0 | 3.2 | 0.00 | 1.22 | 0.00 | 1 | 1008.7 |
| 20260507075459 | 7 | 46 | 0.0 | 1.6 | 0.00 | 1.22 | 0.00 | 1 | 1008.8 |
| 20260507074958 | 7 | 46 | 0.0 | 1.6 | 0.00 | 1.22 | 0.00 | 1 | 1008.6 |
| 20260507074457 | 7 | 314 | 0.0 | 3.2 | 0.00 | 1.22 | 0.00 | 1 | 1008.5 |
| 20260507073957 | 7 | 223 | 0.0 | 3.2 | 0.00 | 1.22 | 0.00 | 1 | 1008.4 |
| 20260507073458 | 7 | 241 | 1.6 | 3.2 | 0.00 | 1.22 | 0.00 | 1 | 1008.3 |
| 20260507072958 | 7 | 269 | 1.6 | 3.2 | 0.00 | 1.22 | 0.00 | 1 | 1008.5 |
| 20260507072457 | 7 | 269 | 1.6 | 3.2 | 0.00 | 1.22 | 0.00 | 1 | 1008.3 |
| 20260507071958 | 7 | 269 | 1.6 | 3.2 | 0.00 | 1.22 | 0.00 | 1 | 1007.9 |
| 20260507071457 | 7 | 314 | 1.6 | 3.2 | 0.00 | 1.22 | 0.00 | 1 | 1007.9 |
| 20260507070957 | 7 | 269 | 1.6 | 3.2 | 0.00 | 1.22 | 0.00 | 1 | 1007.8 |
| 20260507070457 | 7 | 234 | 1.6 | 3.2 | 0.00 | 1.22 | 0.00 | 1 | 1007.8 |
| 20260507070000 | 7 | 237 | 1.6 | 4.8 | 0.00 | 1.22 | 0.00 | 1 | 1007.7 |
| 20260507065457 | 7 | 213 | 1.6 | 4.8 | 0.00 | 1.22 | 0.00 | 1 | 1007.7 |
| 20260507064457 | 7 | 15 | 0.0 | 1.6 | 0.00 | 1.22 | 0.00 | 1 | 1007.7 |
| 20260507063958 | 7 | 46 | 0.0 | 3.2 | 0.00 | 1.22 | 0.00 | 1 | 1008.1 |
| 20260507062957 | 7 | 223 | 0.0 | 1.6 | 0.00 | 1.22 | 0.00 | 1 | 1008.1 |
| 20260507062456 | 7 | 206 | 0.0 | 1.6 | 0.00 | 1.22 | 0.00 | 1 | 1007.9 |
| 20260507061956 | 7 | 46 | 1.6 | 4.8 | 0.00 | 1.22 | 0.00 | 1 | 1008.0 |
| 20260507061457 | 8 | 245 | 1.6 | 4.8 | 0.00 | 1.22 | 0.00 | 1 | 1008.1 |
| 20260507060958 | 8 | 269 | 1.6 | 3.2 | 0.00 | 1.22 | 0.00 | 1 | 1008.0 |
| 20260507060458 | 8 | 241 | 1.6 | 3.2 | 0.00 | 1.22 | 0.00 | 1 | 1008.1 |
| 20260507055956 | 8 | 178 | 0.0 | 3.2 | 0.00 | 1.22 | 0.00 | 1 | 1007.9 |
| 20260507055456 | 8 | 314 | 1.6 | 6.4 | 0.00 | 1.22 | 0.00 | 1 | 1008.0 |
| 20260507054956 | 8 | 223 | 3.2 | 6.4 | 0.00 | 1.22 | 0.00 | 1 | 1008.2 |
| 20260507054456 | 8 | 253 | 3.2 | 8.0 | 0.00 | 1.22 | 0.00 | 1 | 1008.3 |
| 20260507053957 | 8 | 210 | 3.2 | 8.0 | 0.00 | 1.22 | 0.00 | 1 | 1008.4 |
| 20260507053456 | 8 | 295 | 3.2 | 9.7 | 0.00 | 1.22 | 0.00 | 1 | 1008.4 |
| 20260507052956 | 8 | 269 | 1.6 | 4.8 | 0.00 | 1.22 | 0.00 | 1 | 1008.1 |
| 20260507052457 | 8 | 208 | 1.6 | 4.8 | 0.00 | 1.22 | 0.00 | 1 | 1008.1 |
| 20260507051957 | 8 | 178 | 1.6 | 3.2 | 0.00 | 1.22 | 0.00 | 1 | 1008.1 |
| 20260507051456 | 8 | 269 | 1.6 | 4.8 | 0.00 | 1.22 | 0.00 | 1 | 1008.1 |
| 20260507050457 | 8 | 250 | 0.0 | 3.2 | 0.00 | 1.22 | 0.00 | 1 | 1008.1 |
| 20260507045500 | 8 | 269 | 0.0 | 1.6 | 0.00 | 1.22 | 0.00 | 1 | 1008.0 |
| 20260507045001 | 8 | 89 | 0.0 | 3.2 | 0.00 | 1.22 | 0.00 | 1 | 1007.8 |
| 20260507043500 | 8 | 213 | 1.6 | 4.8 | 0.00 | 1.22 | 0.00 | 1 | 1008.0 |
| 20260507042500 | 8 | 234 | 1.6 | 4.8 | 0.03 | 1.22 | 0.00 | 1 | 1008.1 |
| 20260507042001 | 8 | 250 | 1.6 | 3.2 | 0.03 | 1.22 | 0.00 | 1 | 1007.9 |
| 20260507041000 | 9 | 295 | 1.6 | 3.2 | 0.03 | 1.22 | 0.00 | 1 | 1008.0 |
| 20260507040006 | 9 | 219 | 1.6 | 4.8 | 0.03 | 1.22 | 0.00 | 1 | 1007.8 |
| 20260507035501 | 9 | 269 | 1.6 | 4.8 | 0.03 | 1.22 | 1.22 | 1 | 1007.7 |
| 20260507035001 | 9 | 201 | 3.2 | 8.0 | 0.03 | 1.22 | 1.22 | 1 | 1007.9 |
| 20260507034500 | 9 | 223 | 1.6 | 8.0 | 0.03 | 1.22 | 1.22 | 1 | 1007.9 |
| 20260507034001 | 9 | 250 | 1.6 | 4.8 | 0.03 | 1.22 | 1.22 | 1 | 1007.9 |
| 20260507032500 | 10 | 253 | 1.6 | 3.2 | 0.03 | 1.19 | 1.19 | 1 | 1007.9 |
| 20260507031959 | 10 | 223 | 1.6 | 4.8 | 0.03 | 1.19 | 1.19 | 1 | 1007.7 |
| 20260507031500 | 10 | 199 | 1.6 | 8.0 | 0.03 | 1.19 | 1.19 | 1 | 1007.8 |
| 20260507031000 | 10 | 213 | 1.6 | 8.0 | 0.03 | 1.19 | 1.19 | 1 | 1007.7 |
| 20260507030459 | 10 | 195 | 3.2 | 6.4 | 0.03 | 1.19 | 1.19 | 1 | 1007.8 |
| 20260507025000 | 10 | 269 | 1.6 | 6.4 | 0.03 | 1.19 | 1.19 | 1 | 1007.8 |
| 20260507024501 | 10 | 241 | 1.6 | 6.4 | 0.03 | 1.19 | 1.19 | 1 | 1007.8 |
| 20260507024000 | 10 | 223 | 1.6 | 4.8 | 0.05 | 1.19 | 1.19 | 1 | 1007.8 |
| 20260507023500 | 10 | 231 | 1.6 | 4.8 | 0.05 | 1.19 | 1.19 | 1 | 1007.8 |
| 20260507023001 | 10 | 241 | 1.6 | 6.4 | 0.03 | 1.17 | 1.17 | 1 | 1007.8 |
| 20260507021959 | 11 | 234 | 3.2 | 6.4 | 0.05 | 1.17 | 1.17 | 1 | 1007.8 |
| 20260507021500 | 11 | 262 | 3.2 | 6.4 | 0.05 | 1.17 | 1.17 | 1 | 1007.7 |
| 20260507020500 | 11 | 314 | 3.2 | 12.9 | 0.05 | 1.17 | 1.17 | 1 | 1007.8 |
| 20260507015000 | 12 | 269 | 1.6 | 6.4 | 0.05 | 1.17 | 1.17 | 1 | 1007.5 |
| 20260507014501 | 12 | 206 | 3.2 | 8.0 | 0.03 | 1.14 | 1.14 | 1 | 1007.3 |
| 20260507014000 | 12 | 259 | 3.2 | 8.0 | 0.03 | 1.14 | 1.14 | 1 | 1007.4 |
| 20260507013501 | 12 | 241 | 3.2 | 4.8 | 0.03 | 1.14 | 1.14 | 1 | 1007.4 |
| 20260507013000 | 12 | 250 | 1.6 | 4.8 | 0.05 | 1.14 | 1.14 | 1 | 1007.4 |
| 20260507012500 | 12 | 234 | 1.6 | 6.4 | 0.05 | 1.14 | 1.14 | 1 | 1007.1 |
| 20260507011500 | 13 | 213 | 1.6 | 4.8 | 0.03 | 1.12 | 1.12 | 1 | 1006.8 |
| 20260507011000 | 13 | 269 | 1.6 | 4.8 | 0.03 | 1.12 | 1.12 | 1 | 1006.9 |
| 20260507010500 | 13 | 300 | 1.6 | 4.8 | 0.03 | 1.12 | 1.12 | 1 | 1006.8 |
| 20260507005500 | 13 | 253 | 1.6 | 4.8 | 0.05 | 1.12 | 1.12 | 1 | 1006.8 |
| 20260507005009 | 13 | 241 | 1.6 | 4.8 | 0.15 | 1.12 | 1.12 | 1 | 1006.5 |
| 20260507004504 | 13 | 46 | 1.6 | 4.8 | 0.23 | 1.12 | 1.12 | 1 | 1006.5 |
| 20260507004003 | 14 | 33 | 0.0 | 3.2 | 0.41 | 1.12 | 1.12 | 1 | 1006.4 |
| 20260507003501 | 14 | 241 | 0.0 | 3.2 | 0.56 | 1.12 | 1.12 | 1 | 1006.3 |
| 20260507003000 | 14 | 250 | 0.0 | 3.2 | 0.58 | 1.09 | 1.09 | 1 | 1006.1 |
| 20260507002000 | 15 | 46 | 1.6 | 6.4 | 0.58 | 1.09 | 1.09 | 1 | 1006.0 |
| 20260507001502 | 15 | 46 | 1.6 | 6.4 | 0.58 | 1.09 | 1.09 | 1 | 1006.0 |
| 20260507001000 | 15 | 220 | 1.6 | 4.8 | 0.58 | 1.09 | 1.09 | 1 | 1005.8 |
| 20260507000500 | 15 | 237 | 1.6 | 8.0 | 0.58 | 1.09 | 1.09 | 1 | 1005.6 |
| 20260507000003 | 15 | 201 | 1.6 | 8.0 | 0.56 | 1.07 | 1.07 | 1 | 1005.3 |
| 20260506235500 | 15 | 215 | 1.6 | 6.4 | 0.56 | 1.07 | 1.07 | 1 | 1005.2 |
| 20260506234959 | 15 | 165 | 1.6 | 3.2 | 0.46 | 0.97 | 0.97 | 1 | 1005.1 |
| 20260506234500 | 15 | 1 | 1.6 | 3.2 | 0.38 | 0.89 | 0.89 | 1 | 1004.9 |
| 20260506234001 | 15 | 314 | 1.6 | 3.2 | 0.20 | 0.71 | 0.71 | 1 | 1004.9 |
| 20260506233459 | 15 | 1 | 1.6 | 3.2 | 0.05 | 0.56 | 0.56 | 1 | 1004.7 |
| 20260506233001 | 15 | 89 | 0.0 | 3.2 | 0.00 | 0.51 | 0.51 | 1 | 1004.6 |
| 20260506232500 | 15 | 28 | 0.0 | 1.6 | 0.00 | 0.51 | 0.51 | 1 | 1004.6 |
| 20260506232001 | 15 | 1 | 0.0 | 3.2 | 0.00 | 0.51 | 0.51 | 1 | 1004.6 |
| 20260506231500 | 15 | 46 | 0.0 | 3.2 | 0.00 | 0.51 | 0.51 | 1 | 1004.6 |
| 20260506230500 | 16 | 35 | 1.6 | 4.8 | 0.00 | 0.51 | 0.51 | 1 | 1004.6 |
| 20260506225500 | 16 | 1 | 1.6 | 3.2 | 0.00 | 0.51 | 0.51 | 1 | 1004.6 |
| 20260506225000 | 16 | 46 | 1.6 | 3.2 | 0.00 | 0.51 | 0.51 | 1 | 1004.6 |
| 20260506224500 | 16 | 13 | 1.6 | 3.2 | 0.00 | 0.51 | 0.51 | 1 | 1004.5 |
| 20260506223501 | 16 | 331 | 1.6 | 3.2 | 0.00 | 0.51 | 0.51 | 1 | 1004.6 |
| 20260506221500 | 16 | 51 | 3.2 | 4.8 | 0.00 | 0.51 | 0.51 | 1 | 1004.6 |
| 20260506221000 | 16 | 56 | 3.2 | 12.9 | 0.00 | 0.51 | 0.51 | 1 | 1004.5 |
| 20260506220501 | 16 | 178 | 3.2 | 11.3 | 0.00 | 0.51 | 0.51 | 1 | 1004.6 |
| 20260506215500 | 16 | 46 | 3.2 | 14.5 | 0.00 | 0.51 | 0.51 | 1 | 1004.5 |
| 20260506214459 | 16 | 193 | 3.2 | 9.7 | 0.00 | 0.51 | 0.51 | 1 | 1004.5 |
| 20260506213959 | 16 | 146 | 1.6 | 6.4 | 0.00 | 0.51 | 0.51 | 1 | 1004.5 |
| 20260506213459 | 16 | 314 | 3.2 | 4.8 | 0.00 | 0.51 | 0.51 | 1 | 1004.5 |
| 20260506212500 | 16 | 130 | 3.2 | 8.0 | 0.00 | 0.51 | 0.51 | 1 | 1004.6 |
| 20260506211500 | 16 | 178 | 3.2 | 14.5 | 0.00 | 0.51 | 0.51 | 1 | 1004.6 |
| 20260506210459 | 16 | 89 | 3.2 | 9.7 | 0.03 | 0.51 | 0.51 | 1 | 1004.8 |
| 20260506210004 | 16 | 81 | 3.2 | 12.9 | 0.03 | 0.51 | 0.51 | 1 | 1004.8 |
| 20260506205000 | 16 | 20 | 3.2 | 9.7 | 0.03 | 0.51 | 0.51 | 1 | 1004.9 |
| 20260506204500 | 16 | 218 | 3.2 | 12.9 | 0.03 | 0.51 | 0.51 | 1 | 1004.9 |
| 20260506204000 | 16 | 46 | 1.6 | 8.0 | 0.03 | 0.51 | 0.51 | 1 | 1004.9 |
| 20260506203501 | 16 | 100 | 3.2 | 8.0 | 0.03 | 0.51 | 0.51 | 1 | 1005.0 |
| 20260506203002 | 16 | 178 | 3.2 | 9.7 | 0.03 | 0.51 | 0.51 | 1 | 1004.9 |
| 20260506202502 | 16 | 178 | 1.6 | 11.3 | 0.05 | 0.51 | 0.51 | 1 | 1005.0 |
| 20260506202000 | 16 | 1 | 1.6 | 11.3 | 0.08 | 0.51 | 0.51 | 1 | 1005.1 |
| 20260506201500 | 16 | 63 | 1.6 | 8.0 | 0.08 | 0.51 | 0.51 | 1 | 1005.1 |
| 20260506201000 | 16 | 1 | 1.6 | 8.0 | 0.10 | 0.51 | 0.51 | 1 | 1005.2 |
| 20260506200000 | 16 | 28 | 1.6 | 3.2 | 0.10 | 0.48 | 0.48 | 1 | 1005.2 |
| 20260506195459 | 16 | 46 | 1.6 | 4.8 | 0.10 | 0.48 | 0.48 | 1 | 1005.3 |
| 20260506194959 | 16 | 324 | 1.6 | 4.8 | 0.10 | 0.48 | 0.48 | 1 | 1005.4 |
| 20260506194459 | 16 | 35 | 1.6 | 3.2 | 0.13 | 0.48 | 0.48 | 1 | 1005.5 |
| 20260506193959 | 16 | 331 | 1.6 | 3.2 | 0.13 | 0.48 | 0.48 | 1 | 1005.6 |
| 20260506193459 | 16 | 295 | 1.6 | 3.2 | 0.13 | 0.48 | 0.48 | 1 | 1005.6 |
| 20260506192959 | 16 | 1 | 1.6 | 4.8 | 0.15 | 0.48 | 0.48 | 1 | 1005.7 |
| 20260506192459 | 16 | 89 | 1.6 | 4.8 | 0.13 | 0.46 | 0.46 | 1 | 1005.8 |
| 20260506191959 | 16 | 314 | 1.6 | 4.8 | 0.13 | 0.43 | 0.43 | 1 | 1005.9 |
| 20260506191500 | 16 | 46 | 1.6 | 4.8 | 0.15 | 0.43 | 0.43 | 1 | 1005.8 |
| 20260506191000 | 16 | 1 | 1.6 | 4.8 | 0.13 | 0.41 | 0.41 | 1 | 1005.8 |
| 20260506190500 | 16 | 25 | 1.6 | 4.8 | 0.13 | 0.38 | 0.38 | 1 | 1005.8 |
| 20260506185959 | 16 | 314 | 1.6 | 6.4 | 0.13 | 0.38 | 0.38 | 1 | 1005.9 |
| 20260506185458 | 16 | 35 | 1.6 | 8.0 | 0.15 | 0.38 | 0.38 | 1 | 1005.9 |
| 20260506184959 | 16 | 331 | 3.2 | 9.7 | 0.18 | 0.38 | 0.38 | 1 | 1005.9 |
| 20260506184458 | 17 | 89 | 3.2 | 11.3 | 0.18 | 0.36 | 0.36 | 1 | 1006.1 |
| 20260506183957 | 17 | 173 | 1.6 | 6.4 | 0.20 | 0.36 | 0.36 | 1 | 1006.1 |
| 20260506183457 | 17 | 117 | 1.6 | 8.0 | 0.20 | 0.36 | 0.36 | 1 | 1006.1 |
| 20260506182959 | 17 | 295 | 3.2 | 11.3 | 0.20 | 0.33 | 0.33 | 1 | 1005.9 |
| 20260506182459 | 17 | 152 | 3.2 | 11.3 | 0.23 | 0.33 | 0.33 | 1 | 1006.5 |
| 20260506181957 | 17 | 223 | 3.2 | 14.5 | 0.20 | 0.30 | 0.30 | 1 | 1006.6 |
| 20260506181458 | 17 | 121 | 3.2 | 9.7 | 0.20 | 0.28 | 0.28 | 1 | 1006.6 |
| 20260506180958 | 17 | 1 | 1.6 | 8.0 | 0.23 | 0.28 | 0.28 | 1 | 1006.8 |
| 20260506180458 | 17 | 120 | 1.6 | 6.4 | 0.20 | 0.25 | 0.25 | 1 | 1006.8 |
| 20260506180002 | 17 | 35 | 1.6 | 4.8 | 0.23 | 0.25 | 0.25 | 1 | 1007.0 |
| 20260506175500 | 17 | 20 | 1.6 | 8.0 | 0.20 | 0.23 | 0.23 | 1 | 1007.0 |
| 20260506174459 | 17 | 1 | 1.6 | 6.4 | 0.18 | 0.18 | 0.18 | 1 | 1007.1 |
| 20260506173959 | 17 | 286 | 1.6 | 4.8 | 0.15 | 0.15 | 0.15 | 1 | 1007.1 |
| 20260506173459 | 17 | 35 | 1.6 | 4.8 | 0.15 | 0.15 | 0.15 | 1 | 1007.2 |
| 20260506172500 | 18 | 314 | 1.6 | 3.2 | 0.10 | 0.10 | 0.10 | 1 | 1007.2 |
| 20260506172000 | 18 | 1 | 1.6 | 3.2 | 0.10 | 0.10 | 0.10 | 1 | 1007.2 |
| 20260506171459 | 18 | 35 | 1.6 | 3.2 | 0.08 | 0.08 | 0.08 | 1 | 1007.1 |
| 20260506170500 | 18 | 28 | 1.6 | 3.2 | 0.05 | 0.05 | 0.05 | 1 | 1007.1 |
| 20260506165959 | 18 | 15 | 1.6 | 3.2 | 0.03 | 0.03 | 0.03 | 1 | 1007.1 |
| 20260506165458 | 18 | 1 | 1.6 | 3.2 | 0.03 | 0.03 | 0.03 | 1 | 1007.1 |
| 20260506164459 | 18 | 28 | 1.6 | 4.8 | 0.00 | 0.00 | 0.00 | 1 | 1007.2 |
| 20260506163959 | 18 | 347 | 1.6 | 4.8 | 0.00 | 0.00 | 0.00 | 1 | 1007.2 |
| 20260506162459 | 18 | 117 | 1.6 | 8.0 | 0.00 | 0.00 | 0.00 | 1 | 1007.3 |
| 20260506161959 | 18 | 193 | 3.2 | 9.7 | 0.00 | 0.00 | 0.00 | 1 | 1007.4 |
| 20260506161459 | 18 | 178 | 3.2 | 9.7 | 0.00 | 0.00 | 0.00 | 1 | 1007.4 |
| 20260506160959 | 18 | 135 | 3.2 | 11.3 | 0.00 | 0.00 | 0.00 | 21 | 1007.4 |
| 20260506160459 | 18 | 295 | 3.2 | 11.3 | 0.00 | 0.00 | 0.00 | 21 | 1007.5 |
| 20260506155958 | 18 | 147 | 3.2 | 8.0 | 0.00 | 0.00 | 0.00 | 13 | 1007.5 |
| 20260506155458 | 18 | 113 | 3.2 | 6.4 | 0.00 | 0.00 | 0.00 | 4 | 1007.6 |
| 20260506154958 | 18 | 197 | 3.2 | 12.9 | 0.00 | 0.00 | 0.00 | 8 | 1007.7 |
| 20260506154458 | 18 | 143 | 3.2 | 12.9 | 0.00 | 0.00 | 0.00 | 6 | 1007.8 |
| 20260506153959 | 18 | 46 | 1.6 | 8.0 | 0.00 | 0.00 | 0.00 | 1 | 1008.0 |
| 20260506152959 | 18 | 336 | 3.2 | 11.3 | 0.00 | 0.00 | 0.00 | 3 | 1008.5 |
| 20260506151959 | 18 | 340 | 3.2 | 9.7 | 0.00 | 0.00 | 0.00 | 18 | 1008.4 |
| 20260506151459 | 18 | 165 | 3.2 | 9.7 | 0.00 | 0.00 | 0.00 | 11 | 1008.4 |
| 20260506150459 | 18 | 135 | 3.2 | 9.7 | 0.00 | 0.00 | 0.00 | 1 | 1008.4 |
| 20260506145959 | 18 | 143 | 3.2 | 8.0 | 0.00 | 0.00 | 0.00 | 10 | 1008.2 |
| 20260506145459 | 18 | 178 | 3.2 | 9.7 | 0.00 | 0.00 | 0.00 | 1 | 1008.3 |
| 20260506144959 | 18 | 11 | 3.2 | 9.7 | 0.00 | 0.00 | 0.00 | 1 | 1008.2 |
| 20260506143959 | 17 | 1 | 1.6 | 8.0 | 0.00 | 0.00 | 0.00 | 1 | 1008.0 |
| 20260506142959 | 17 | 1 | 3.2 | 8.0 | 0.00 | 0.00 | 0.00 | 1 | 1008.1 |
| 20260506141959 | 17 | 149 | 3.2 | 8.0 | 0.00 | 0.00 | 0.00 | 1 | 1008.2 |
| 20260506141459 | 17 | 269 | 3.2 | 11.3 | 0.00 | 0.00 | 0.00 | 1 | 1008.2 |
| 20260506140959 | 16 | 126 | 1.6 | 8.0 | 0.00 | 0.00 | 0.00 | 1 | 1008.3 |
| 20260506140459 | 16 | 314 | 1.6 | 6.4 | 0.00 | 0.00 | 0.00 | 1 | 1008.4 |
| 20260506140000 | 16 | 1 | 3.2 | 8.0 | 0.00 | 0.00 | 0.00 | 1 | 1008.3 |
| 20260506135458 | 16 | 293 | 3.2 | 8.0 | 0.00 | 0.00 | 0.00 | 1 | 1008.4 |
| 20260506134958 | 16 | 168 | 3.2 | 9.7 | 0.00 | 0.00 | 0.00 | 1 | 1008.4 |
| 20260506133959 | 15 | 126 | 1.6 | 3.2 | 0.00 | 0.00 | 0.00 | 1 | 1008.3 |
| 20260506133458 | 15 | 46 | 1.6 | 4.8 | 0.00 | 0.00 | 0.00 | 1 | 1008.4 |
| 20260506132958 | 15 | 135 | 1.6 | 4.8 | 0.00 | 0.00 | 0.00 | 1 | 1008.5 |
| 20260506132459 | 15 | 89 | 1.6 | 3.2 | 0.00 | 0.00 | 0.00 | 1 | 1008.6 |
| 20260506131957 | 15 | 56 | 1.6 | 3.2 | 0.00 | 0.00 | 0.00 | 1 | 1008.8 |